Current Conditions
Scattered
Clouds



Pressure
1019.98 (hPa) - 30.12 (inHG)
Visibility

6.0 (km) - 3.7 (miles)
Temperature
14  °C
Temperature
13  °C
Dewpoint
94  %
 Humidity
Wind Speed
21  km/h
11  kts
13  mph
5.8  m/s
Wind Direction
N
45°
E
90°
135°
S
180°
225°
W
270°
315°
 290°

West North
West
Airport Data
EDGS
Siegerland Airport
Metar :EDGS 240120Z AUTO 29011KT 6000 // SCT002/// OVC004/// 14/13 Q1020
Wed 24th July 03:20 am
Raw Metar Info
Raw METAR is the most common format in the world for the transmission of observational weather data. It is highly standardized through the International Civil Aviation Organization (ICAO), which allows it to be understood throughout most of the world.
API Info
Data Provided by
https://www.checkwx.com/weather/EDGS

Aviation Weather providing METAR, TAF, AIRMET, SIGMET and OUTLOOK Weather Reports
© Info
CSS/SVG/PHP scripts were developed by weather34 for use in the weather34 template © 2015-2024

Guide Info provided by Metar-Wikipedia